Weather History for KBRD - October, 2013

Change the Weather History Date:

Wednesday, October 2, 2013

  Actual Average Record
Temperature  
Mean Temperature 54 °F -  
Max Temperature 73 °F 63 °F 88 °F (1992)
Min Temperature 37 °F 34 °F 16 °F (1974)
Degree Days  
Heating Degree Days 10    
Growing Degree Days 4 (Base 50)    
Moisture  
Dew Point 44 °F    
Average Humidity 75    
Maximum Humidity 93    
Minimum Humidity 29    
Precipitation  
Precipitation 0.99 in - - ()
Sea Level Pressure  
Sea Level Pressure 30.01 in    
Wind  
Wind Speed 4 mph (ESE)    
Max Wind Speed 12 mph    
Max Gust Speed -    
Visibility 10 miles    
Events Rain , Thunderstorm    
Averages and records for this station are not official NWS values.
T = Trace of Precipitation, MM = Missing Value Source: NWS Daily Summary

Daily Weather History Graph

Daily Weather History Graph

Search for Another Location

Airport or City:

Trip Planner

Search our weather history database for the weather conditions in past years. The results will help you decide how hot, cold, wet, or windy it might be!

Date:

Astronomy

Oct. 02, 2013 Rise Set
Actual Time 7:16 AM CDT 6:53 PM CDT
Civil Twilight 6:46 AM CDT 7:23 PM CDT
Nautical Twilight 6:11 AM CDT 7:58 PM CDT
Astronomical Twilight 5:36 AM CDT 8:34 PM CDT
Moon 4:43 AM CDT (10/2) 5:35 PM CDT (10/2)
Length of Visible Light 12h 37m
Length of Day
11h 37m
Waning Crescent, 6% of the Moon is Illuminated
Oct 2
Waning Crescent
Oct 4
New
Oct 11
First Quarter
Oct 18
Full
Oct 26
Last Quarter

Hourly Weather History & Observations

Time (CDT) Temp. Windchill Dew Point Humidity Pressure Visibility Wind Dir Wind Speed Gust Speed Precip Events Conditions
12:53 AM 46.0 °F 43.1 °F 37.9 °F 73% 30.00 in 10.0 mi SSW 5.8 mph - N/A   Clear
1:53 AM 43.0 °F 40.3 °F 37.0 °F 80% 30.01 in 10.0 mi SW 4.6 mph - N/A   Clear
2:53 AM 43.0 °F - 37.0 °F 80% 30.01 in 10.0 mi Calm Calm - N/A   Clear
3:53 AM 43.0 °F - 37.0 °F 80% 30.01 in 10.0 mi Calm Calm - N/A   Clear
4:53 AM 41.0 °F 39.0 °F 36.0 °F 82% 30.02 in 10.0 mi South 3.5 mph - N/A   Clear
5:53 AM 37.9 °F - 36.0 °F 93% 30.03 in 10.0 mi Calm Calm - N/A   Clear
6:53 AM 37.0 °F - 35.1 °F 93% 30.02 in 10.0 mi Calm Calm - N/A   Clear
7:53 AM 42.1 °F - 37.0 °F 82% 30.03 in 10.0 mi Calm Calm - N/A   Clear
8:53 AM 46.0 °F 44.8 °F 41.0 °F 83% 30.04 in 10.0 mi SSW 3.5 mph - N/A   Partly Cloudy
9:53 AM 52.0 °F - 44.1 °F 74% 30.04 in 10.0 mi Calm Calm - N/A   Clear
10:53 AM 63.0 °F - 46.0 °F 54% 30.04 in 10.0 mi Calm Calm - N/A   Clear
11:53 AM 69.1 °F - 42.1 °F 38% 30.03 in 10.0 mi SSW 9.2 mph - N/A   Clear
12:53 PM 72.0 °F - 37.9 °F 29% 30.01 in 10.0 mi South 11.5 mph - N/A   Clear
1:53 PM 71.1 °F - 39.0 °F 31% 29.96 in 10.0 mi SE 9.2 mph - N/A   Mostly Cloudy
2:53 PM 66.9 °F - 45.0 °F 45% 29.98 in 10.0 mi Calm Calm - 0.00 in Rain Light Rain
3:38 PM 57.2 °F - 53.6 °F 88% 29.99 in 10.0 mi NE 3.5 mph - 0.17 in Rain , Thunderstorm Heavy Rain
3:53 PM 57.0 °F - 52.0 °F 83% 30.01 in 10.0 mi Calm Calm - 0.24 in Rain Rain
4:53 PM 55.9 °F - 52.0 °F 87% 30.00 in 10.0 mi Calm Calm - 0.25 in Rain Rain
5:53 PM 54.0 °F - 51.1 °F 90% 30.04 in 10.0 mi North 5.8 mph - 0.22 in Rain Heavy Rain
6:53 PM 54.0 °F - 50.0 °F 86% 30.01 in 10.0 mi NE 10.4 mph - 0.20 in Rain Light Rain
7:53 PM 53.1 °F - 50.0 °F 89% 29.99 in 10.0 mi NE 10.4 mph - 0.06 in Rain Light Rain
8:53 PM 54.0 °F - 50.0 °F 86% 29.99 in 10.0 mi East 8.1 mph - 0.01 in Rain Rain
9:53 PM 54.0 °F - 48.9 °F 83% 29.97 in 10.0 mi ENE 8.1 mph - 0.01 in   Overcast
10:53 PM 54.0 °F - 48.9 °F 83% 29.96 in 10.0 mi ENE 5.8 mph - N/A   Overcast
11:53 PM 54.0 °F - 50.0 °F 86% 29.95 in 10.0 mi ENE 5.8 mph - N/A   Overcast